Time,TemperatureF,DewpointF,PressureIn,WindDirection,WindDirectionDegrees,WindSpeedMPH,WindSpeedGustMPH,Humidity,HourlyPrecipIn,Conditions,Clouds,dailyrainin,SoftwareType,DateUTC
2014-09-23 00:10:00,44.2,43.0,30.26,NE,38,1.0,2.0,95,0.00,,,0.00,weatherlink.com 1.10,2014-09-23 04:10:00,
2014-09-23 00:26:00,43.9,43.0,30.26,NE,38,1.0,2.0,95,0.00,,,0.00,weatherlink.com 1.10,2014-09-23 04:26:00,
2014-09-23 00:41:00,43.8,43.0,30.26,NE,38,1.0,2.0,95,0.00,,,0.00,weatherlink.com 1.10,2014-09-23 04:41:00,
2014-09-23 00:56:00,43.5,42.0,30.27,NE,38,1.0,1.0,95,0.00,,,0.00,weatherlink.com 1.10,2014-09-23 04:56:00,
2014-09-23 01:11:00,43.2,42.0,30.26,NE,38,0.0,1.0,96,0.00,,,0.00,weatherlink.com 1.10,2014-09-23 05:11:00,
2014-09-23 01:27:00,42.9,42.0,30.26,NE,38,0.0,1.0,96,0.00,,,0.00,weatherlink.com 1.10,2014-09-23 05:27:00,
2014-09-23 01:41:00,42.8,42.0,30.27,NE,38,0.0,1.0,96,0.00,,,0.00,weatherlink.com 1.10,2014-09-23 05:41:00,
2014-09-23 01:57:00,42.5,42.0,30.27,NE,38,0.0,2.0,96,0.00,,,0.00,weatherlink.com 1.10,2014-09-23 05:57:00,
2014-09-23 02:12:00,42.4,41.0,30.27,NE,38,1.0,1.0,96,0.00,,,0.00,weatherlink.com 1.10,2014-09-23 06:12:00,
2014-09-23 02:26:00,41.9,41.0,30.27,NE,38,1.0,1.0,96,0.00,,,0.00,weatherlink.com 1.10,2014-09-23 06:26:00,
2014-09-23 02:42:00,42.0,41.0,30.27,NE,38,1.0,1.0,96,0.00,,,0.00,weatherlink.com 1.10,2014-09-23 06:42:00,
2014-09-23 02:56:00,41.8,41.0,30.27,NE,54,1.0,2.0,96,0.00,,,0.00,weatherlink.com 1.10,2014-09-23 06:56:00,
2014-09-23 03:12:00,41.7,41.0,30.27,NE,54,0.0,1.0,96,0.00,,,0.00,weatherlink.com 1.10,2014-09-23 07:12:00,
2014-09-23 03:27:00,41.2,40.0,30.26,NE,54,1.0,1.0,96,0.00,,,0.00,weatherlink.com 1.10,2014-09-23 07:27:00,
2014-09-23 03:41:00,41.2,40.0,30.26,NE,54,1.0,2.0,96,0.00,,,0.00,weatherlink.com 1.10,2014-09-23 07:41:00,
2014-09-23 03:57:00,41.0,40.0,30.27,NE,54,0.0,2.0,96,0.00,,,0.00,weatherlink.com 1.10,2014-09-23 07:57:00,
2014-09-23 04:12:00,40.9,40.0,30.27,NE,54,0.0,1.0,96,0.00,,,0.00,weatherlink.com 1.10,2014-09-23 08:12:00,
2014-09-23 04:27:00,40.7,40.0,30.27,NE,54,1.0,2.0,96,0.00,,,0.00,weatherlink.com 1.10,2014-09-23 08:27:00,
2014-09-23 04:43:00,40.5,40.0,30.27,NE,54,1.0,2.0,97,0.00,,,0.00,weatherlink.com 1.10,2014-09-23 08:43:00,
2014-09-23 04:57:00,40.5,40.0,30.28,NE,54,0.0,2.0,97,0.00,,,0.00,weatherlink.com 1.10,2014-09-23 08:57:00,
2014-09-23 05:13:00,40.5,40.0,30.28,NE,54,0.0,2.0,97,0.00,,,0.00,weatherlink.com 1.10,2014-09-23 09:13:00,
2014-09-23 05:27:00,40.2,39.0,30.27,NE,54,0.0,2.0,97,0.00,,,0.00,weatherlink.com 1.10,2014-09-23 09:27:00,
2014-09-23 05:43:00,40.5,40.0,30.28,NE,54,0.0,2.0,97,0.00,,,0.00,weatherlink.com 1.10,2014-09-23 09:43:00,
2014-09-23 05:57:00,40.3,40.0,30.28,NE,54,0.0,2.0,97,0.00,,,0.00,weatherlink.com 1.10,2014-09-23 09:57:00,
2014-09-23 06:13:00,40.2,39.0,30.29,NE,54,1.0,2.0,97,0.00,,,0.00,weatherlink.com 1.10,2014-09-23 10:13:00,
2014-09-23 06:29:00,39.7,39.0,30.29,NE,54,1.0,2.0,97,0.00,,,0.00,weatherlink.com 1.10,2014-09-23 10:29:00,
2014-09-23 06:43:00,39.7,39.0,30.30,North,5,1.0,2.0,97,0.00,,,0.00,weatherlink.com 1.10,2014-09-23 10:43:00,
2014-09-23 06:58:00,39.7,39.0,30.30,North,5,1.0,1.0,97,0.00,,,0.00,weatherlink.com 1.10,2014-09-23 10:58:00,
2014-09-23 07:13:00,39.5,39.0,30.30,East,83,1.0,2.0,97,0.00,,,0.00,weatherlink.com 1.10,2014-09-23 11:13:00,
2014-09-23 07:28:00,39.2,39.0,30.31,East,83,0.0,1.0,97,0.00,,,0.00,weatherlink.com 1.10,2014-09-23 11:28:00,
2014-09-23 07:43:00,39.3,39.0,30.31,East,83,0.0,1.0,97,0.00,,,0.00,weatherlink.com 1.10,2014-09-23 11:43:00,
2014-09-23 07:59:00,39.8,39.0,30.32,East,83,0.0,0.0,97,0.00,,,0.00,weatherlink.com 1.10,2014-09-23 11:59:00,
2014-09-23 08:14:00,41.2,40.0,30.32,East,83,0.0,0.0,97,0.00,,,0.00,weatherlink.com 1.10,2014-09-23 12:14:00,
2014-09-23 08:29:00,43.6,43.0,30.32,East,83,0.0,0.0,97,0.00,,,0.00,weatherlink.com 1.10,2014-09-23 12:29:00,
2014-09-23 08:44:00,46.4,45.0,30.32,East,83,0.0,0.0,96,0.00,,,0.00,weatherlink.com 1.10,2014-09-23 12:44:00,
2014-09-23 08:59:00,49.1,47.0,30.33,East,83,0.0,1.0,92,0.00,,,0.00,weatherlink.com 1.10,2014-09-23 12:59:00,
2014-09-23 09:14:00,51.1,47.0,30.33,East,83,2.0,2.0,87,0.00,,,0.00,weatherlink.com 1.10,2014-09-23 13:14:00,
2014-09-23 09:30:00,53.1,48.0,30.34,ESE,117,2.0,5.0,84,0.00,,,0.00,weatherlink.com 1.10,2014-09-23 13:30:00,
2014-09-23 09:45:00,55.6,50.0,30.34,SE,130,0.0,4.0,80,0.00,,,0.00,weatherlink.com 1.10,2014-09-23 13:45:00,
2014-09-23 10:00:00,56.6,48.0,30.34,SSE,166,4.0,4.0,73,0.00,,,0.00,weatherlink.com 1.10,2014-09-23 14:00:00,
2014-09-23 10:14:00,58.0,48.0,30.34,SSE,158,1.0,5.0,70,0.00,,,0.00,weatherlink.com 1.10,2014-09-23 14:14:00,
2014-09-23 10:30:00,59.2,47.0,30.34,SSE,155,1.0,3.0,65,0.00,,,0.00,weatherlink.com 1.10,2014-09-23 14:30:00,